ZHONGXING-10R

Last updated on Mon Sep 07 2026 00:03:02 GMT+0000 (Coordinated Universal Time)

1 63075U 25036A 26249.59261839 -.00000368 00000+0 00000+0 0 9999 2 63075 0.0427 237.0802 0004668 296.3901 136.0697 1.00273602 5774
UTC large
Height (km)
Speed (km/s)
/
Latitude / Longitude
Inclination (degrees)
Orbital Period (minutes)
Azimuth
Elevation
Range (km)
Doppler Factor

Next 0 passes for location: London (51.5072 / 0.1276)

No passes found over London.
ZHONGXING-10R